Regional Weather Roundup
Issued by NWS Jackson, KY

Home | Current Version | Previous Version | Graphics & Text | Print | Product List | Glossary On
Versions: 1 2 3 4 5 6 7 8 9 10 11 12 13 14 15 16 17 18 19 20 21 22 23 24 25 26 27 28 29 30 31 32 33 34 35 36 37 38 39 40 41 42 43 44 45 46 47 48 49 50
000
ASUS43 KJKL 171719
RWRJKL

EAST KENTUCKY HOURLY WEATHER ROUNDUP
NATIONAL WEATHER SERVICE JACKSON KY
100 PM EDT WED SEP 17 2014

NOTE: "FAIR" INDICATES FEW OR NO CLOUDS BELOW 12,000 FEET WITH
NO SIGNIFICANT WEATHER AND/OR OBSTRUCTIONS TO VISIBILITY.

* THESE REPORTS ARE NOT UNDER NWS QUALITY CONTROL AND MAY NOT
  REPORT WEATHER SUCH AS PRECIPITATION AND FOG.

KYZ079-080-083-085-087-088-110-112-115-119-120-171800
...EASTERN KENTUCKY...

CITY           SKY/WX    TMP DP  RH WIND       PRES   REMARKS
JACKSON        PTSUNNY   66  53  63 NW3       30.03S
LONDON         PTSUNNY   67  52  58 VRB6      30.03R
MONTICELLO*    PTSUNNY   69  54  58 CALM      30.06R
WILLIAMSBURG*  PTSUNNY   64  55  72 CALM      30.03R
MIDDLESBORO*   SUNNY     72  56  57 SE5       30.00S
HARLAN APT*    MOSUNNY   72  52  49 MISG      30.00F
HAZARD APT*    PTSUNNY   68  57  68 CALM      30.01
BLACK MTN*       N/A     63  54  72 W2          N/A
PIKEVILLE APT* CLOUDY    64  55  72 CALM      30.02
BIG SANDY*     CLOUDY    64  58  82 NW3       30.03F
MOREHEAD APT*  PTSUNNY   68  52  56 CALM      30.05S
$$

KYZ035-036-041-042-044-050-067-078-099-171800
...CENTRAL KENTUCKY...

CITY           SKY/WX    TMP DP  RH WIND       PRES   REMARKS
MT STERLING*   PTSUNNY   64  52  63 CALM      30.05S
FLEMING/MASON* CLOUDY    65  53  65 W5        30.05F
DANVILLE*      MOSUNNY   63  52  67 E3        30.06F
RICHMOND*      CLOUDY    66  50  55 CALM      30.04R
LEXINGTON      PTSUNNY   68  52  56 CALM      30.05S
FRANKFORT      PTSUNNY   66  53  63 S3        30.05S
$$

KYZ091>093-OHZ055-061-077-WVZ005-015-034-035-042-171800
...SOUTHERN OHIO/WEST VIRGINIA...

CITY           SKY/WX    TMP DP  RH WIND       PRES   REMARKS
COVINGTON      CLOUDY    62  49  62 CALM      30.05F
COLUMBUS       PTSUNNY   66  48  52 CALM      30.03F
DAYTON         PTSUNNY   61  47  59 CALM      30.06F
WILMINGTON     CLOUDY    60  46  59 E3        30.05F
HUNTINGTON     CLOUDY    65  53  65 NE5       30.02S
CHARLESTON     PTSUNNY   64  57  78 E3        30.01F
PINEVILLE*     CLOUDY    70  61  73 MISG      30.05F
BECKLEY        PTSUNNY   65  53  65 SE7       30.04F
BLUEFIELD      CLOUDY    63  52  67 VRB6      30.05F
$$

VAZ002-007-008-TNZ017-027-036-066-071-171800
...SOUTHWEST VIRGINIA/EAST TENNESSEE...

CITY           SKY/WX    TMP DP  RH WIND       PRES   REMARKS
WISE*          CLOUDY    66  52  59 CALM      30.04F
JONESVILLE*    PTSUNNY   68  54  60 CALM      30.02F
ABINGDON*      MOSUNNY   73  59  61 CALM      30.00F
BRISTOL        PTSUNNY   70  56  61 VRB3      29.98F
KNOXVILLE      MOSUNNY   72  56  57 SW6       29.98S
OAK RIDGE      MOSUNNY   74  55  51 NW5       30.01S
CROSSVILLE     SUNNY     67  50  54 VRB3      30.05S
NASHVILLE      CLOUDY    67  57  70 CALM      30.04F
$$

...KEY TO REMARKS...
VSB - VISIBILITY IN MILES
WCI - WIND CHILL INDEX
HX  - HEAT INDEX

$$


USA.gov is the U.S. government's official web portal to all federal, state and local government web resources and services.